Location: Arbon
(43.0005°N, 0.7472°E)
Time: 06:05:02
(UTC+00:00)

Vanguard 2 Rocket - Pass Details

Date: 19 June 2021
Orbit: 554 x 3325 km, 32.9° (Epoch: 26 July)

Event Time Altitude Azimuth Distance (km) Brightness Sun altitude
Rises 22:02:19 0° 264° (W) 7,191 11.8 -18.4°
Reaches altitude 10° 22:07:38 10° 260° (W) 5,967 11.2 -18.8°
Maximum altitude 22:24:12 54° 191° (S) 2,606 8.8 -20.1°
Enters shadow 22:31:52 21° 124° (SE) 3,195 9.2 -20.6°
